Wind_Speed
16 18 20 12 17 18 21 23 24 24 25 22 18 16 17 28 30 30 29 31 28 24 22 23 21 20 19 17 20 20 19 16 17 15 13 10 11 11 11 13 13 14 17
11 12 8 6 2 7 11 12 18 23 15 22 29 22 12 23 28 27 30 29 26 25 27 29 25 24 22 19 17 14 16 22 19 17 16 15 12 13 13 12 13 16 17
15 17 8 5 4 6 10 8 11 9 14 13 24 6 10 17 18 21 25 28 27 23 22 24 26 25 27 24 28 16 14 22 19 19 18 17 15 14 14 15 14 14 17
11 12 12 5 2 9 12 14 12 15 14 10 7 14 4 5 7 5 10 15 18 24 28 24 24 21 24 22 28 24 11 23 20 16 21 19 18 15 15 14 16 16 18
13 10 13 11 5 7 9 13 15 13 16 18 17 11 4 5 8 6 6 2 5 5 5 10 16 22 26 27 19 17 14 17 20 15 21 20 18 19 16 17 16 19 18
17 16 14 16 16 15 16 15 16 16 16 18 19 18 12 12 10 13 11 9 7 5 6 7 8 4 7 16 15 16 15 10 15 16 14 23 21 19 20 18 19 18 21
20 19 20 18 19 20 19 19 18 19 20 20 21 19 19 20 19 19 19 14 13 14 13 14 13 13 11 11 12 13 13 12 11 10 18 16 24 26 24 23 21 21 22
23 23 23 23 22 22 21 21 22 21 21 22 21 23 22 21 22 21 22 20 20 18 17 21 20 20 19 18 17 16 14 16 15 13 15 15 19 19 19 29 24 24 25
27 26 25 25 25 25 24 24 25 25 24 24 24 25 26 25 24 25 25 24 24 23 23 24 22 22 22 22 23 22 21 20 19 17 15 15 18 17 21 24 30 27 26
28 28 28 27 27 27 28 29 29 28 28 27 26 27 27 27 27 28 27 29 29 28 28 28 27 25 26 25 24 25 24 25 24 23 21 19 17 19 19 21 31 31 28
28 28 29 29 28 27 27 27 27 27 27 27 28 28 28 28 29 29 28 30 28 29 29 28 29 29 29 28 27 29 29 27 28 27 25 25 24 23 22 22 22 37 32
30 30 29 30 31 30 31 31 32 32 32 33 33 32 31 32 32 31 32 33 33 32 33 34 33 33 32 31 30 31 31 31 33 33 31 30 29 28 26 25 24 24 39
33 32 32 33 33 34 34 35 35 36 37 37 36 36 37 37 36 36 36 37 36 37 39 40 40 40 38 38 36 35 35 34 34 35 36 36 35 33 32 32 30 29 30
35 35 36 36 37 36 37 38 39 39 39 39 39 39 39 39 40 41 42 42 41 40 41 42 42 42 43 43 42 40 40 38 37 37 38 38 38 39 39 38 36 35 35
39 39 39 39 39 40 40 41 41 41 41 41 41 41 42 41 41 41 42 44 45 47 47 45 44 46 45 45 46 45 46 44 41 42 44 42 42 42 41 41 43 42 39
40 41 42 42 42 42 43 43 43 43 43 43 43 44 45 44 44 44 44 44 46 47 48 49 52 52 51 51 50 50 52 52 50 48 47 46 47 46 46 45 45 46 47
42 43 44 44 44 44 44 44 44 44 44 43 43 44 45 46 46 46 47 47 47 47 48 49 50 50 52 54 54 54 55 56 56 55 54 51 50 51 50 52 52 49 48
45 45 45 46 44 43 43 43 44 45 45 46 46 46 47 48 49 50 51 51 51 50 49 48 47 47 48 49 50 51 56 56 55 55 57 58 57 56 55 55 56 56 55
45 46 46 45 43 42 43 45 47 48 49 50 50 51 50 51 51 52 52 52 51 51 51 50 50 49 48 48 48 49 50 51 53 57 57 56 56 61 62 61 59 59 60
45 46 45 46 46 45 46 47 49 51 52 52 52 52 53 53 53 52 50 51 51 52 52 52 52 52 52 52 52 52 53 54 54 56 58 59 63 62 61 62 66 64 63
46 47 48 50 51 51 52 53 53 53 54 55 55 54 54 55 54 55 54 54 54 55 56 57 57 57 58 57 56 57 58 57 57 58 58 59 62 64 68 69 64 65 69
48 50 52 54 55 56 56 57 55 54 54 54 54 55 57 58 58 59 60 59 59 61 61 62 62 62 63 62 61 60 61 61 61 62 64 66 68 68 69 70 71 72 71
56 58 61 63 62 59 58 55 53 54 55 57 59 60 62 63 63 62 63 62 63 64 64 65 65 66 66 66 66 65 65 66 66 69 70 73 74 76 76 78 77 77 80
50 52 51 55 58 57 55 55 57 59 60 61 63 63 64 64 65 65 65 65 65 66 67 68 69 70 70 71 71 71 71 71 72 72 73 77 80 82 84 86 87 86 85
48 49 52 52 54 56 56 57 59 60 61 62 63 64 65 65 66 67 67 68 69 69 70 70 71 72 74 75 75 76 77 78 78 78 77 78 83 86 87 88 87 88 90
47 49 52 54 55 56 57 57 59 60 61 62 63 64 65 66 67 68 70 71 72 71 71 71 72 74 76 77 77 77 79 81 83 84 83 84 84 83 88 89 90 90 90
Wind_Direction
293 290 282 249 237 249 259 257 254 248 253 251 261 268 245 237 230 230 233 232 229 231 234 232 231 235 241 243 255 260 247 237 248 239 235 230 233 223 217 214 211 209 205
286 294 255 191 129 211 231 245 250 242 247 253 250 258 239 230 234 234 233 230 231 233 239 242 237 227 236 232 235 268 249 220 242 239 231 227 229 228 221 217 215 206 206
266 249 241 179 233 246 231 220 230 209 219 229 232 203 228 224 236 244 243 239 237 237 238 241 241 236 230 232 229 249 262 219 237 240 238 233 223 225 226 217 211 210 207
260 257 236 279 276 246 226 232 232 225 205 205 242 173 208 216 228 248 228 234 237 247 252 241 244 240 242 235 242 247 228 221 232 264 241 237 233 227 227 225 218 216 213
255 243 213 202 244 230 241 232 226 236 231 223 224 238 254 205 238 254 213 199 166 201 244 221 240 253 246 243 254 234 226 220 224 260 234 233 237 234 230 231 224 223 216
255 253 236 223 223 224 219 236 228 232 230 228 225 228 233 214 233 248 257 280 233 237 222 227 233 231 242 233 245 249 263 253 239 247 238 234 231 237 234 236 234 229 227
260 256 252 243 233 233 238 239 236 229 233 230 231 231 226 225 228 236 241 245 234 239 243 236 238 236 216 215 225 236 247 256 268 251 236 234 240 240 241 236 237 236 233
258 254 253 252 247 241 237 237 237 237 235 235 237 240 240 236 232 235 243 245 239 241 241 242 239 238 237 230 228 237 237 244 248 258 265 248 241 239 240 235 238 237 236
265 263 261 260 259 258 257 254 251 247 243 243 242 244 244 243 243 241 240 242 246 245 249 247 242 244 242 242 244 241 242 246 245 247 241 257 259 257 246 235 235 236 237
272 270 266 263 258 254 253 254 254 252 251 249 246 247 249 249 250 249 249 249 245 245 246 251 252 249 248 246 246 249 249 249 252 253 249 245 245 268 263 249 233 232 238
268 270 271 270 270 269 267 266 265 266 263 259 257 254 251 249 248 251 252 252 253 251 252 251 251 251 252 251 249 251 253 253 255 256 256 255 251 244 249 261 252 228 237
261 261 261 262 263 264 266 267 267 269 271 269 267 265 264 263 261 258 255 253 250 252 254 255 256 253 252 254 251 251 250 250 252 253 253 254 254 255 249 235 252 257 236
264 263 261 259 259 262 264 264 264 265 265 264 262 261 261 261 262 263 262 261 258 252 250 251 252 253 255 255 253 253 253 251 251 253 253 251 251 252 254 253 242 242 256
268 267 265 265 265 265 266 266 266 267 266 265 263 261 260 258 256 255 258 260 260 258 257 253 252 254 255 255 256 255 254 254 252 251 251 252 252 250 249 252 254 249 247
269 268 266 266 266 267 267 267 269 269 268 268 267 266 266 264 261 258 255 253 253 256 257 257 257 254 255 256 257 259 258 258 255 254 253 252 251 252 251 249 250 252 250
267 267 266 266 265 266 266 266 267 267 267 267 266 267 267 266 265 263 261 258 258 255 251 250 250 251 253 252 255 256 256 258 258 257 254 253 253 252 251 252 250 249 250
264 264 265 266 267 267 267 267 266 265 264 264 265 265 265 265 265 265 264 262 260 257 254 251 249 249 248 249 250 249 251 251 252 254 258 258 255 253 252 251 251 251 249
266 265 267 267 268 268 268 267 267 267 267 267 266 265 264 264 263 263 263 263 263 261 260 259 257 255 254 252 251 251 251 249 250 252 252 254 256 256 254 252 250 250 251
265 266 267 266 267 268 268 269 270 270 270 269 268 267 265 264 264 264 263 262 260 259 258 257 256 255 254 254 256 257 255 252 251 250 250 250 252 251 253 255 252 249 249
264 265 263 262 264 267 271 272 271 271 271 270 268 266 265 266 267 266 265 265 265 265 265 265 264 263 263 263 262 258 256 257 257 255 253 251 249 248 250 253 254 253 250
263 264 263 264 266 268 269 270 272 271 269 268 267 266 265 266 267 266 265 264 264 263 263 263 263 264 264 263 263 263 262 261 260 259 259 259 255 252 249 247 249 252 254
260 260 261 263 265 267 268 272 271 268 267 267 267 268 267 267 267 268 267 266 265 265 264 264 264 265 264 262 261 259 259 261 260 262 263 261 259 258 254 252 248 247 249
262 261 261 264 265 268 271 269 267 267 266 266 267 267 267 267 267 267 267 267 268 268 268 267 267 267 266 264 263 262 261 261 260 261 261 261 260 258 256 254 251 247 244
256 258 262 262 262 264 263 263 265 266 266 266 267 267 267 267 268 268 269 269 268 268 267 268 268 268 266 265 264 264 263 263 261 261 261 260 260 257 255 254 252 250 247
258 258 259 261 261 261 261 262 263 264 264 264 266 267 267 268 268 268 268 267 266 265 265 265 264 264 263 264 264 265 266 266 265 263 260 256 259 258 256 254 252 251 250
257 255 255 257 258 260 261 261 261 262 263 264 265 266 267 268 269 270 269 268 267 266 266 265 265 265 265 265 267 268 268 268 268 267 265 261 253 257 258 256 256 255 252
Height
5814 5812 5810 5808 5809 5811 5813 5814 5815 5817 5818 5818 5818 5820 5819 5820 5820 5822 5824 5827 5828 5830 5831 5834 5835 5837 5839 5840 5843 5844 5845 5846 5847 5848 5849 5850 5851 5852 5851 5852 5854 5856 5856
5812 5811 5808 5809 5807 5808 5809 5810 5810 5812 5814 5815 5817 5817 5816 5817 5818 5819 5821 5823 5825 5827 5829 5831 5833 5834 5836 5837 5839 5840 5842 5843 5845 5846 5846 5848 5849 5850 5851 5851 5853 5853 5855
5809 5809 5808 5807 5806 5807 5809 5809 5809 5809 5809 5812 5812 5814 5813 5814 5816 5818 5818 5819 5822 5823 5825 5827 5829 5832 5834 5834 5836 5838 5838 5840 5842 5843 5844 5846 5846 5847 5849 5851 5851 5853 5854
5807 5806 5807 5805 5804 5806 5807 5806 5807 5807 5807 5808 5810 5811 5813 5814 5816 5816 5816 5816 5817 5819 5821 5824 5825 5828 5830 5831 5834 5837 5835 5837 5839 5840 5840 5843 5845 5845 5847 5849 5850 5851 5852
5805 5805 5804 5803 5803 5804 5805 5805 5805 5805 5806 5807 5808 5810 5810 5812 5812 5813 5815 5815 5814 5816 5818 5819 5822 5822 5824 5828 5830 5831 5832 5834 5836 5838 5837 5839 5842 5844 5845 5847 5848 5849 5850
5802 5802 5802 5802 5802 5802 5802 5803 5803 5803 5804 5805 5806 5806 5807 5807 5808 5810 5811 5812 5813 5814 5816 5817 5820 5820 5820 5823 5826 5827 5828 5829 5831 5833 5834 5835 5838 5840 5842 5844 5846 5847 5848
5798 5798 5798 5798 5799 5799 5799 5799 5799 5800 5802 5803 5803 5804 5803 5804 5805 5807 5807 5808 5808 5811 5812 5814 5815 5818 5819 5821 5822 5823 5826 5827 5828 5830 5832 5832 5834 5837 5839 5841 5843 5845 5846
5794 5794 5794 5794 5794 5795 5795 5796 5796 5797 5797 5798 5799 5799 5799 5800 5801 5803 5804 5805 5805 5806 5808 5810 5811 5813 5816 5817 5818 5820 5821 5822 5823 5825 5827 5831 5830 5832 5833 5836 5838 5840 5842
5790 5789 5790 5790 5790 5790 5790 5791 5792 5791 5792 5793 5793 5794 5794 5795 5796 5797 5798 5799 5800 5802 5803 5806 5807 5808 5811 5812 5814 5815 5817 5818 5819 5821 5822 5825 5827 5828 5829 5829 5833 5835 5837
5784 5784 5785 5785 5785 5786 5786 5786 5786 5786 5787 5787 5788 5789 5789 5789 5790 5793 5793 5795 5796 5796 5797 5799 5801 5803 5806 5807 5808 5811 5812 5814 5815 5816 5819 5820 5820 5823 5826 5826 5827 5830 5833
5776 5777 5777 5778 5778 5779 5780 5780 5780 5781 5781 5781 5782 5783 5784 5784 5786 5787 5788 5790 5789 5791 5791 5793 5795 5796 5798 5800 5801 5804 5806 5808 5810 5810 5813 5816 5817 5817 5820 5823 5822 5825 5828
5769 5769 5770 5770 5770 5771 5772 5772 5773 5774 5773 5775 5775 5776 5776 5777 5778 5779 5781 5783 5784 5784 5784 5786 5787 5789 5791 5793 5794 5796 5798 5801 5803 5804 5806 5810 5812 5813 5814 5816 5818 5820 5823
5762 5762 5762 5762 5762 5763 5764 5765 5765 5766 5767 5767 5768 5768 5769 5770 5770 5770 5772 5773 5775 5777 5779 5779 5780 5782 5782 5785 5786 5788 5790 5792 5795 5797 5799 5801 5804 5806 5808 5811 5813 5815 5818
5754 5754 5753 5754 5754 5754 5755 5755 5755 5756 5757 5757 5758 5760 5761 5762 5763 5764 5765 5765 5766 5768 5769 5772 5773 5772 5773 5776 5778 5779 5782 5783 5785 5789 5791 5792 5795 5797 5800 5803 5805 5807 5810
5746 5745 5744 5744 5744 5744 5745 5745 5745 5746 5746 5746 5747 5747 5749 5751 5752 5754 5757 5758 5758 5759 5760 5760 5761 5764 5765 5767 5769 5769 5772 5774 5775 5778 5782 5783 5785 5789 5791 5792 5796 5799 5801
5736 5736 5735 5734 5734 5734 5734 5734 5734 5735 5735 5735 5736 5737 5737 5739 5740 5742 5744 5745 5747 5748 5749 5750 5752 5754 5755 5757 5758 5760 5761 5762 5764 5768 5771 5773 5775 5778 5781 5783 5786 5789 5791
5725 5724 5725 5725 5724 5724 5723 5723 5723 5724 5724 5725 5725 5725 5726 5727 5728 5728 5730 5732 5734 5736 5738 5740 5741 5742 5744 5746 5748 5751 5752 5753 5755 5756 5758 5761 5764 5767 5769 5773 5776 5778 5782
5715 5714 5714 5714 5713 5713 5713 5713 5712 5713 5713 5713 5714 5714 5715 5715 5716 5718 5718 5719 5720 5722 5724 5725 5727 5729 5731 5734 5736 5738 5739 5741 5742 5744 5746 5748 5751 5754 5757 5761 5764 5767 5771
5704 5704 5703 5702 5702 5702 5701 5701 5701 5701 5702 5702 5702 5703 5703 5704 5704 5705 5706 5707 5708 5710 5711 5713 5715 5716 5719 5721 5722 5723 5724 5728 5730 5732 5734 5737 5741 5742 5743 5747 5751 5755 5758
5692 5692 5691 5690 5690 5690 5691 5690 5689 5689 5690 5690 5690 5690 5691 5691 5692 5692 5692 5692 5693 5693 5694 5696 5698 5700 5702 5705 5707 5708 5709 5711 5713 5716 5718 5721 5725 5727 5730 5733 5737 5741 5744
5680 5679 5678 5678 5677 5677 5676 5676 5677 5676 5676 5676 5676 5677 5678 5678 5679 5679 5680 5680 5680 5680 5682 5683 5684 5685 5686 5688 5689 5690 5691 5694 5696 5698 5701 5705 5707 5710 5714 5718 5720 5724 5728
5667 5666 5666 5664 5663 5663 5662 5662 5662 5661 5661 5661 5661 5662 5662 5663 5663 5664 5664 5664 5664 5664 5665 5666 5667 5667 5668 5670 5672 5674 5675 5676 5678 5679 5681 5685 5687 5690 5693 5698 5702 5706 5710
5653 5651 5650 5650 5650 5650 5649 5648 5648 5647 5647 5647 5646 5646 5646 5646 5646 5646 5646 5645 5645 5645 5645 5646 5647 5648 5648 5650 5652 5654 5655 5658 5661 5662 5663 5665 5668 5672 5674 5677 5681 5685 5690
5635 5635 5635 5634 5633 5632 5632 5632 5631 5631 5631 5630 5630 5628 5628 5628 5629 5629 5628 5628 5628 5627 5628 5628 5628 5629 5630 5630 5631 5633 5635 5637 5639 5644 5644 5642 5645 5649 5652 5655 5659 5663 5667
5621 5621 5619 5619 5618 5617 5616 5616 5615 5614 5614 5613 5612 5610 5610 5610 5610 5610 5610 5609 5609 5609 5609 5609 5609 5609 5610 5610 5611 5611 5611 5613 5615 5620 5626 5626 5622 5624 5628 5631 5634 5638 5641
5605 5604 5602 5601 5601 5601 5601 5600 5598 5597 5597 5596 5595 5593 5592 5592 5592 5592 5591 5590 5589 5589 5589 5589 5589 5588 5588 5588 5587 5588 5589 5589 5589 5592 5597 5600 5606 5603 5602 5606 5607 5611 5615